Airport details for: EETN (Estonia)

Metar

EETN 270820Z 05009KT 9999 FEW025 20/15 Q1004 NOSIG

General details

ICAO: EETN
IATA: TLL
Name (city): Lennart Meri
Major:
Country: Estonia
vACC: VACC Estonia
Description:


Lennart Meri Tallinn Airport is the largest airport in Estonia and home of the national airline Nordica, as well as the secondary hub for airBaltic and LOT Polish Airlines. The airport has an asphalt-concrete runway that is 3480 meters long and 45 meters wide, seven taxiways and fourteen terminal gates.

Scenery links:
FS9 scenery: Download
FSX/P3D scenery: Download
XP scenery: Download
Elevation: 131 ft.
Transition altitude: 5000 ft.
MSA: 10000 ft.
Latitude: 59.413333
Longitude: 24.8325
EETN Charts
EETN Notams
EETN Online stations

Runways

Number Course Length Elevation Lat Lon ILS ILS freq ILS FAC GP
08 83° 10072ft / 3070 m 129ft 59.413325 24.810153 108.3 83° 3.0°
26 263° 10072ft / 3070 m 131ft 59.413192 24.859811 109.3 263° 3.0°